| time (UTC) | temp C | wind direction | speed KPH | gust KPH | rain 1hr cm | rain 24hr cm | rain mn cm | humidity % | barometer mb |
| 20260507060015 | 5 | 0.0 | 0.0 | 0.00 | 1.65 | 0.03 | 93 | 1012.9 | |
| 20260507055016 | 5 | 0.0 | 0.0 | 0.00 | 1.68 | 0.03 | 93 | 1013.1 | |
| 20260507054016 | 5 | 0.0 | 0.0 | 0.00 | 1.73 | 0.03 | 93 | 1013.1 | |
| 20260507053016 | 5 | 0.0 | 0.0 | 0.00 | 1.75 | 0.03 | 93 | 1013.2 | |
| 20260507052016 | 5 | 0.0 | 0.0 | 0.00 | 1.80 | 0.03 | 93 | 1013.3 | |
| 20260507051016 | 5 | 0.0 | 0.0 | 0.03 | 1.83 | 0.03 | 93 | 1013.2 | |
| 20260507050016 | 5 | 0.0 | 0.0 | 0.03 | 1.88 | 0.03 | 94 | 1013.5 | |
| 20260507045016 | 5 | 0.0 | 0.0 | 0.03 | 1.91 | 0.03 | 94 | 1013.4 | |
| 20260507044015 | 5 | 225 | 1.6 | 3.2 | 0.03 | 1.96 | 0.03 | 94 | 1013.3 |
| 20260507043015 | 5 | 0.0 | 0.0 | 0.03 | 1.96 | 0.03 | 94 | 1013.3 | |
| 20260507042015 | 5 | 0.0 | 0.0 | 0.03 | 1.98 | 0.03 | 94 | 1013.2 | |
| 20260507041016 | 5 | 0.0 | 1.6 | 0.00 | 1.98 | 0.00 | 94 | 1013.1 | |
| 20260507040016 | 5 | 0.0 | 1.6 | 0.00 | 2.01 | 2.01 | 94 | 1013.1 | |
| 20260507035016 | 5 | 0.0 | 1.6 | 0.00 | 2.01 | 2.01 | 94 | 1013.0 | |
| 20260507034017 | 6 | 0.0 | 1.6 | 0.00 | 2.06 | 2.01 | 94 | 1013.1 | |
| 20260507033017 | 6 | 0.0 | 1.6 | 0.00 | 2.08 | 2.01 | 94 | 1013.2 | |
| 20260507032057 | 6 | 0.0 | 0.0 | 0.00 | 2.11 | 2.01 | 94 | 1013.1 | |
| 20260507031017 | 6 | 0.0 | 1.6 | 0.03 | 2.11 | 2.01 | 94 | 1013.0 | |
| 20260507030037 | 6 | 0.0 | 0.0 | 0.03 | 2.11 | 2.01 | 94 | 1013.0 | |
| 20260507025017 | 6 | 0.0 | 0.0 | 0.03 | 2.11 | 2.01 | 94 | 1012.9 | |
| 20260507024018 | 6 | 0.0 | 1.6 | 0.03 | 2.11 | 2.01 | 94 | 1012.9 | |
| 20260507023017 | 6 | 0.0 | 1.6 | 0.05 | 2.13 | 2.01 | 94 | 1012.9 | |
| 20260507022016 | 6 | 0.0 | 0.0 | 0.05 | 2.13 | 2.01 | 94 | 1012.8 | |
| 20260507021036 | 6 | 0.0 | 0.0 | 0.03 | 2.11 | 1.98 | 94 | 1013.0 | |
| 20260507020016 | 6 | 0.0 | 0.0 | 0.05 | 2.13 | 1.98 | 94 | 1013.0 | |
| 20260507015016 | 6 | 0.0 | 0.0 | 0.05 | 2.16 | 1.98 | 94 | 1012.9 | |
| 20260507014016 | 6 | 0.0 | 1.6 | 0.05 | 2.18 | 1.98 | 94 | 1012.8 | |
| 20260507013016 | 6 | 0.0 | 1.6 | 0.05 | 2.18 | 1.96 | 93 | 1012.7 | |
| 20260507012016 | 6 | 0.0 | 1.6 | 0.05 | 2.21 | 1.96 | 93 | 1013.0 | |
| 20260507010016 | 6 | 338 | 3.2 | 4.8 | 0.05 | 2.18 | 1.93 | 93 | 1012.7 |
| 20260507005016 | 6 | 23 | 3.2 | 4.8 | 0.08 | 2.18 | 1.93 | 93 | 1012.6 |
| 20260507004016 | 6 | 0 | 3.2 | 8.0 | 0.08 | 2.21 | 1.93 | 93 | 1012.3 |
| 20260507003037 | 6 | 23 | 1.6 | 3.2 | 0.08 | 2.21 | 1.91 | 93 | 1011.7 |
| 20260507002016 | 6 | 45 | 1.6 | 3.2 | 0.08 | 2.21 | 1.91 | 93 | 1011.7 |
| 20260507001016 | 6 | 68 | 3.2 | 4.8 | 0.08 | 2.18 | 1.88 | 92 | 1011.7 |
| 20260507000016 | 7 | 315 | 3.2 | 6.4 | 0.08 | 2.21 | 1.88 | 92 | 1011.9 |
| 20260506235016 | 8 | 0 | 3.2 | 6.4 | 0.05 | 2.18 | 1.85 | 92 | 1011.6 |
| 20260506234016 | 8 | 0.0 | 0.0 | 0.05 | 2.21 | 1.85 | 92 | 1011.3 | |
| 20260506233036 | 8 | 0.0 | 0.0 | 0.03 | 2.21 | 1.83 | 91 | 1011.1 | |
| 20260506232036 | 8 | 0.0 | 0.0 | 0.03 | 2.24 | 1.83 | 90 | 1011.0 | |
| 20260506231016 | 8 | 0.0 | 0.0 | 0.00 | 2.26 | 1.80 | 89 | 1010.9 | |
| 20260506230016 | 8 | 0.0 | 1.6 | 0.00 | 2.31 | 1.80 | 88 | 1010.8 | |
| 20260506225016 | 8 | 0.0 | 3.2 | 0.00 | 2.34 | 1.80 | 87 | 1010.6 | |
| 20260506224016 | 8 | 0.0 | 0.0 | 0.00 | 2.36 | 1.80 | 85 | 1010.6 | |
| 20260506223016 | 9 | 0.0 | 0.0 | 0.00 | 2.36 | 1.80 | 85 | 1010.6 | |
| 20260506222036 | 9 | 0.0 | 1.6 | 0.00 | 2.39 | 1.80 | 85 | 1010.4 | |
| 20260506221016 | 9 | 0.0 | 1.6 | 0.00 | 2.39 | 1.80 | 85 | 1010.5 | |
| 20260506220016 | 9 | 0.0 | 0.0 | 0.00 | 2.39 | 1.80 | 86 | 1010.4 | |
| 20260506215016 | 9 | 90 | 1.6 | 4.8 | 0.00 | 2.39 | 1.80 | 86 | 1010.2 |
| 20260506214016 | 9 | 135 | 1.6 | 3.2 | 0.00 | 2.39 | 1.80 | 85 | 1010.3 |
| 20260506213016 | 9 | 0.0 | 1.6 | 0.00 | 2.39 | 1.80 | 85 | 1010.3 | |
| 20260506212036 | 9 | 135 | 1.6 | 3.2 | 0.00 | 2.39 | 1.80 | 83 | 1010.3 |
| 20260506211016 | 9 | 0.0 | 1.6 | 0.00 | 2.39 | 1.80 | 83 | 1010.4 | |
| 20260506210015 | 9 | 0.0 | 0.0 | 0.00 | 2.39 | 1.80 | 83 | 1010.3 | |
| 20260506205016 | 9 | 135 | 1.6 | 3.2 | 0.00 | 2.39 | 1.80 | 84 | 1010.3 |
| 20260506204016 | 8 | 0.0 | 1.6 | 0.00 | 2.39 | 1.80 | 85 | 1010.4 | |
| 20260506203016 | 9 | 0.0 | 3.2 | 0.00 | 2.39 | 1.80 | 85 | 1010.4 | |
| 20260506202015 | 8 | 135 | 1.6 | 3.2 | 0.00 | 2.39 | 1.80 | 85 | 1010.3 |
| 20260506201016 | 8 | 113 | 3.2 | 4.8 | 0.00 | 2.39 | 1.80 | 85 | 1010.2 |
| 20260506200016 | 8 | 68 | 1.6 | 1.6 | 0.00 | 2.39 | 1.80 | 85 | 1010.3 |
| 20260506195016 | 8 | 0.0 | 3.2 | 0.00 | 2.39 | 1.80 | 85 | 1010.4 | |
| 20260506194015 | 8 | 68 | 3.2 | 4.8 | 0.00 | 2.39 | 1.80 | 86 | 1010.4 |
| 20260506193016 | 8 | 0.0 | 0.0 | 0.00 | 2.39 | 1.80 | 86 | 1010.4 | |
| 20260506192016 | 8 | 0.0 | 0.0 | 0.00 | 2.39 | 1.80 | 88 | 1010.2 | |
| 20260506191036 | 8 | 68 | 1.6 | 3.2 | 0.00 | 2.39 | 1.80 | 89 | 1010.3 |
| 20260506190015 | 8 | 68 | 1.6 | 3.2 | 0.00 | 2.39 | 1.80 | 88 | 1010.4 |
| 20260506185035 | 8 | 68 | 3.2 | 4.8 | 0.00 | 2.39 | 1.80 | 90 | 1010.5 |
| 20260506184015 | 7 | 68 | 1.6 | 8.0 | 0.00 | 2.39 | 1.80 | 91 | 1010.4 |
| 20260506183015 | 7 | 90 | 1.6 | 4.8 | 0.00 | 2.39 | 1.80 | 91 | 1010.4 |
| 20260506182015 | 7 | 68 | 3.2 | 11.3 | 0.00 | 2.39 | 1.80 | 92 | 1010.3 |
| 20260506181056 | 7 | 23 | 3.2 | 4.8 | 0.00 | 2.39 | 1.80 | 92 | 1010.6 |
| 20260506180016 | 7 | 68 | 3.2 | 4.8 | 0.00 | 2.39 | 1.80 | 92 | 1010.7 |
| 20260506175015 | 7 | 68 | 1.6 | 3.2 | 0.00 | 2.39 | 1.80 | 93 | 1010.6 |
| 20260506174015 | 7 | 45 | 1.6 | 3.2 | 0.00 | 2.39 | 1.80 | 93 | 1010.3 |
| 20260506173015 | 7 | 68 | 3.2 | 4.8 | 0.00 | 2.39 | 1.80 | 93 | 1010.0 |
| 20260506172015 | 7 | 338 | 1.6 | 4.8 | 0.00 | 2.39 | 1.80 | 94 | 1010.1 |
| 20260506171015 | 7 | 68 | 3.2 | 6.4 | 0.00 | 2.39 | 1.80 | 93 | 1009.7 |
| 20260506170016 | 7 | 0.0 | 3.2 | 0.00 | 2.39 | 1.80 | 94 | 1009.7 | |
| 20260506165035 | 7 | 23 | 1.6 | 4.8 | 0.00 | 2.39 | 1.80 | 94 | 1009.9 |
| 20260506164015 | 7 | 68 | 1.6 | 3.2 | 0.00 | 2.39 | 1.80 | 95 | 1009.8 |
| 20260506163015 | 7 | 68 | 1.6 | 3.2 | 0.00 | 2.39 | 1.80 | 94 | 1009.8 |
| 20260506162015 | 7 | 23 | 1.6 | 4.8 | 0.00 | 2.39 | 1.80 | 95 | 1009.7 |
| 20260506161015 | 7 | 0.0 | 1.6 | 0.00 | 2.39 | 1.80 | 95 | 1009.8 | |
| 20260506160016 | 7 | 68 | 4.8 | 8.0 | 0.00 | 2.39 | 1.80 | 95 | 1009.7 |
| 20260506155015 | 7 | 68 | 3.2 | 6.4 | 0.00 | 2.39 | 1.80 | 95 | 1009.9 |
| 20260506154015 | 7 | 68 | 1.6 | 3.2 | 0.00 | 2.39 | 1.80 | 95 | 1009.9 |
| 20260506153015 | 7 | 45 | 3.2 | 6.4 | 0.00 | 2.39 | 1.80 | 95 | 1009.8 |
| 20260506152015 | 7 | 45 | 4.8 | 6.4 | 0.00 | 2.39 | 1.80 | 95 | 1009.6 |
| 20260506151055 | 7 | 45 | 4.8 | 8.0 | 0.03 | 2.39 | 1.80 | 95 | 1009.6 |
| 20260506150015 | 7 | 68 | 3.2 | 4.8 | 0.03 | 2.39 | 1.80 | 95 | 1009.7 |
| 20260506145015 | 7 | 338 | 3.2 | 4.8 | 0.03 | 2.39 | 1.80 | 95 | 1009.7 |
| 20260506144015 | 6 | 45 | 4.8 | 8.0 | 0.03 | 2.39 | 1.80 | 95 | 1009.5 |
| 20260506143055 | 6 | 45 | 1.6 | 6.4 | 0.05 | 2.39 | 1.80 | 95 | 1009.4 |
| 20260506142015 | 7 | 68 | 3.2 | 8.0 | 0.05 | 2.39 | 1.80 | 96 | 1009.4 |
| 20260506141015 | 7 | 45 | 1.6 | 3.2 | 0.03 | 2.36 | 1.78 | 95 | 1009.1 |
| 20260506140014 | 6 | 0.0 | 1.6 | 0.05 | 2.36 | 1.78 | 95 | 1009.1 | |
| 20260506135014 | 6 | 68 | 1.6 | 3.2 | 0.05 | 2.36 | 1.78 | 95 | 1009.3 |
| 20260506134015 | 6 | 0.0 | 0.0 | 0.05 | 2.36 | 1.78 | 95 | 1009.3 | |
| 20260506133017 | 6 | 23 | 1.6 | 4.8 | 0.05 | 2.34 | 1.75 | 95 | 1009.1 |
| 20260506132017 | 6 | 68 | 1.6 | 1.6 | 0.05 | 2.34 | 1.75 | 95 | 1009.0 |
| 20260506131017 | 6 | 0.0 | 3.2 | 0.08 | 2.34 | 1.75 | 95 | 1009.0 | |
| 20260506130017 | 6 | 68 | 1.6 | 3.2 | 0.08 | 2.31 | 1.73 | 95 | 1008.9 |
| 20260506125017 | 6 | 90 | 3.2 | 6.4 | 0.10 | 2.31 | 1.73 | 95 | 1008.9 |
| 20260506124017 | 6 | 90 | 3.2 | 6.4 | 0.10 | 2.31 | 1.73 | 95 | 1008.8 |
| 20260506123016 | 6 | 68 | 3.2 | 9.7 | 0.10 | 2.29 | 1.70 | 95 | 1009.1 |
| 20260506122016 | 6 | 0.0 | 0.0 | 0.10 | 2.29 | 1.70 | 95 | 1008.9 | |
| 20260506121016 | 6 | 0.0 | 0.0 | 0.10 | 2.26 | 1.68 | 95 | 1009.1 | |
| 20260506120017 | 6 | 90 | 1.6 | 3.2 | 0.08 | 2.24 | 1.65 | 95 | 1009.1 |
| 20260506115016 | 6 | 0.0 | 1.6 | 0.08 | 2.21 | 1.63 | 95 | 1009.2 | |
| 20260506114017 | 6 | 0.0 | 3.2 | 0.10 | 2.21 | 1.63 | 95 | 1009.1 | |
| 20260506113036 | 6 | 90 | 4.8 | 8.0 | 0.10 | 2.18 | 1.60 | 95 | 1008.8 |
| 20260506112016 | 6 | 90 | 3.2 | 6.4 | 0.13 | 2.18 | 1.60 | 95 | 1008.7 |
| 20260506111017 | 6 | 45 | 6.4 | 9.7 | 0.15 | 2.16 | 1.57 | 95 | 1008.5 |
| 20260506110016 | 6 | 68 | 3.2 | 8.0 | 0.18 | 2.16 | 1.57 | 95 | 1008.6 |
| 20260506105016 | 6 | 68 | 6.4 | 11.3 | 0.18 | 2.13 | 1.55 | 95 | 1008.6 |
| 20260506104016 | 6 | 90 | 4.8 | 9.7 | 0.18 | 2.11 | 1.52 | 95 | 1008.8 |
| 20260506103036 | 6 | 68 | 4.8 | 11.3 | 0.18 | 2.08 | 1.50 | 96 | 1008.9 |
| 20260506102016 | 6 | 90 | 1.6 | 4.8 | 0.18 | 2.06 | 1.47 | 95 | 1009.0 |
| 20260506101016 | 6 | 68 | 1.6 | 3.2 | 0.13 | 2.01 | 1.42 | 95 | 1009.1 |
| 20260506100016 | 6 | 68 | 4.8 | 9.7 | 0.13 | 1.98 | 1.40 | 95 | 1009.2 |
| 20260506095016 | 7 | 68 | 3.2 | 8.0 | 0.13 | 1.96 | 1.37 | 95 | 1009.0 |
| 20260506094016 | 7 | 68 | 1.6 | 3.2 | 0.13 | 1.93 | 1.35 | 95 | 1009.2 |
| 20260506093016 | 7 | 90 | 1.6 | 3.2 | 0.15 | 1.91 | 1.32 | 95 | 1009.1 |
| 20260506092036 | 7 | 68 | 3.2 | 4.8 | 0.15 | 1.88 | 1.30 | 95 | 1009.1 |
| 20260506091016 | 7 | 68 | 1.6 | 3.2 | 0.20 | 1.88 | 1.30 | 95 | 1008.8 |
| 20260506090016 | 7 | 90 | 1.6 | 3.2 | 0.23 | 1.85 | 1.27 | 95 | 1008.5 |
| 20260506085016 | 7 | 68 | 3.2 | 4.8 | 0.25 | 1.83 | 1.24 | 95 | 1009.0 |
| 20260506084016 | 7 | 68 | 4.8 | 8.0 | 0.28 | 1.80 | 1.22 | 95 | 1008.9 |
| 20260506083016 | 7 | 68 | 4.8 | 11.3 | 0.28 | 1.75 | 1.17 | 95 | 1009.4 |
| 20260506082016 | 7 | 0.0 | 1.6 | 0.30 | 1.73 | 1.14 | 95 | 1009.3 | |
| 20260506081016 | 7 | 90 | 3.2 | 4.8 | 0.30 | 1.68 | 1.09 | 95 | 1008.8 |
| 20260506073016 | 7 | 0.0 | 1.6 | 0.30 | 1.47 | 0.89 | 95 | 1009.4 | |
| 20260506072036 | 7 | 0.0 | 3.2 | 0.33 | 1.42 | 0.84 | 95 | 1009.1 | |
| 20260506071016 | 7 | 45 | 4.8 | 8.0 | 0.36 | 1.37 | 0.79 | 95 | 1008.8 |
| 20260506062016 | 8 | 45 | 3.2 | 8.0 | 0.28 | 1.12 | 0.51 | 95 | 1009.4 |
| 20260506061056 | 8 | 68 | 6.4 | 12.9 | 0.23 | 1.04 | 0.43 | 95 | 1009.7 |